Volver al catálogo

ATLAS 5 CENTAUR DEB

LostHEO
NORAD 43977·DEBRIS·🇺🇸 United States

Lanzado Sep 17, 2014 desde Cape Canaveral Space Force Station

Loading…

Próximos Pases (próximas 24 horas)

TLE

ObsoletoSource: Space-Track

Época: Jan 7, 2021, 04:09 UTC

1 43977U 14055AG  21007.17326056 -.00000061  00000-0  00000+0 0  9992
2 43977  22.0393 330.5397 4931121 200.7993 129.0049  1.89433092 15743

Sigue ATLAS 5 CENTAUR DEB en tiempo real con AllMySat

Download on the App Store